• Em Portugal
  • Lista de países
  • Para 7 dias
  • Temperatura da água
  • Mapas de satélite
  • Mapa do tempo
  • Widgets de tempo
  • user-avatar
    Iniciar Sessão

    Previsão horária em Ludwinowo

    Hoje, 21 Outubro, Domingo

    Tempo Temperatura Precipitação Vento Pressão Humidade
    00:00 +6°C° 0 mm 1 m/s 753 mmHg 88%
    01:00 +6°C° 0 mm 1 m/s 753 mmHg 89%
    02:00 +6°C° 0 mm 1 m/s 753 mmHg 91%
    03:00 +5°C° 0 mm 1 m/s 753 mmHg 91%
    04:00 +5°C° 0 mm 1 m/s 753 mmHg 92%
    05:00 +5°C° 0 mm 1 m/s 753 mmHg 92%
    06:00 +5°C° 0 mm 1 m/s 754 mmHg 93%
    07:00 +5°C° 0 mm 1 m/s 754 mmHg 93%
    08:00 +6°C° 0 mm 1 m/s 755 mmHg 91%
    09:00 +7°C° 0 mm 1 m/s 755 mmHg 84%
    10:00 +9°C° 0 mm 1 m/s 755 mmHg 77%
    11:00 +10°C° 0 mm 2 m/s 755 mmHg 70%
    12:00 +10°C° 0 mm 2 m/s 755 mmHg 66%
    13:00 +12°C° 0 mm 2 m/s 755 mmHg 63%
    14:00 +12°C° 0 mm 2 m/s 755 mmHg 59%
    15:00 +12°C° 0 mm 2 m/s 755 mmHg 62%
    16:00 +10°C° 0 mm 2 m/s 755 mmHg 65%
    17:00 +10°C° 0 mm 1 m/s 755 mmHg 68%
    18:00 +10°C° 0 mm 1 m/s 755 mmHg 72%
    19:00 +9°C° 0 mm 1 m/s 755 mmHg 76%
    20:00 +8°C° 0 mm 1 m/s 755 mmHg 80%
    21:00 +7°C° 0 mm 1 m/s 755 mmHg 81%
    22:00 +7°C° 0 mm 1 m/s 755 mmHg 83%
    23:00 +6°C° 0 mm 2 m/s 755 mmHg 85%

    Amanhã, 22 Outubro, Segunda-feira

    Tempo Temperatura Precipitação Vento Pressão Humidade
    00:00 +5°C° 0 mm 2 m/s 755 mmHg 86%
    01:00 +5°C° 0 mm 2 m/s 754 mmHg 87%
    02:00 +5°C° 0 mm 2 m/s 754 mmHg 88%
    03:00 +4°C° 0 mm 3 m/s 754 mmHg 89%
    04:00 +3°C° 0 mm 3 m/s 753 mmHg 90%
    05:00 +3°C° 0 mm 3 m/s 753 mmHg 90%
    06:00 +3°C° 0 mm 3 m/s 753 mmHg 90%
    07:00 +3°C° 0 mm 3 m/s 753 mmHg 90%
    08:00 +4°C° 0 mm 3 m/s 753 mmHg 90%
    09:00 +5°C° 0 mm 4 m/s 752 mmHg 83%
    10:00 +7°C° 0 mm 4 m/s 752 mmHg 76%
    11:00 +9°C° 0 mm 5 m/s 752 mmHg 69%
    12:00 +9°C° 0 mm 5 m/s 751 mmHg 67%
    13:00 +10°C° 0 mm 5 m/s 751 mmHg 65%
    14:00 +10°C° 0 mm 5 m/s 750 mmHg 63%
    15:00 +10°C° 0.2 mm 5 m/s 750 mmHg 68%
    16:00 +9°C° 0.2 mm 5 m/s 749 mmHg 73%
    17:00 +8°C° 0.2 mm 5 m/s 749 mmHg 78%
    18:00 +8°C° 0.3 mm 5 m/s 749 mmHg 80%
    19:00 +7°C° 0.3 mm 5 m/s 749 mmHg 83%
    20:00 +7°C° 0.3 mm 4 m/s 749 mmHg 85%
    21:00 +6°C° 0 mm 4 m/s 749 mmHg 87%
    22:00 +5°C° 0 mm 3 m/s 749 mmHg 88%
    23:00 +4°C° 0 mm 3 m/s 749 mmHg 90%

    Depois de amanhã, 23 Outubro, Terça-feira

    Tempo Temperatura Precipitação Vento Pressão Humidade
    00:00 +4°C° 0 mm 3 m/s 749 mmHg 89%
    01:00 +3°C° 0 mm 3 m/s 749 mmHg 89%
    02:00 +3°C° 0 mm 3 m/s 749 mmHg 88%
    03:00 +3°C° 0 mm 3 m/s 749 mmHg 87%
    04:00 +3°C° 0 mm 3 m/s 748 mmHg 87%
    05:00 +3°C° 0 mm 3 m/s 747 mmHg 86%
    06:00 +3°C° 0 mm 4 m/s 747 mmHg 85%
    07:00 +3°C° 0 mm 4 m/s 746 mmHg 84%
    08:00 +4°C° 0 mm 4 m/s 746 mmHg 83%
    09:00 +5°C° 0 mm 5 m/s 745 mmHg 79%
    10:00 +4°C° 0 mm 6 m/s 744 mmHg 75%
    11:00 +5°C° 0 mm 7 m/s 743 mmHg 72%
    12:00 +5°C° 0.4 mm 8 m/s 741 mmHg 72%
    13:00 +5°C° 0.4 mm 8 m/s 740 mmHg 72%
    14:00 +5°C° 0.4 mm 9 m/s 738 mmHg 73%
    15:00 +3°C° 1.1 mm 9 m/s 736 mmHg 76%
    16:00 +3°C° 1.1 mm 9 m/s 735 mmHg 79%
    17:00 +3°C° 1.1 mm 10 m/s 733 mmHg 81%
    18:00 +5°C° 1.5 mm 9 m/s 731 mmHg 83%
    19:00 +5°C° 1.5 mm 9 m/s 730 mmHg 85%
    20:00 +6°C° 1.5 mm 9 m/s 728 mmHg 87%
    21:00 +6°C° 0.6 mm 8 m/s 728 mmHg 87%
    22:00 +6°C° 0.6 mm 7 m/s 727 mmHg 86%
    23:00 +7°C° 0.6 mm 6 m/s 726 mmHg 85%

    24 Outubro, Quarta-feira

    Tempo Temperatura Precipitação Vento Pressão Humidade
    00:00 +7°C° 0.5 mm 6 m/s 726 mmHg 85%
    01:00 +5°C° 0.5 mm 6 m/s 726 mmHg 84%
    02:00 +5°C° 0.5 mm 6 m/s 725 mmHg 84%
    03:00 +4°C° 0.5 mm 7 m/s 726 mmHg 79%
    04:00 +4°C° 0.5 mm 7 m/s 726 mmHg 75%
    05:00 +2°C° 0.5 mm 8 m/s 727 mmHg 70%
    06:00 +2°C° 0 mm 7 m/s 727 mmHg 71%
    07:00 +2°C° 0 mm 7 m/s 727 mmHg 71%
    08:00 0°C° 0 mm 7 m/s 728 mmHg 72%
    09:00 +1°C° 1.6 mm 8 m/s 728 mmHg 74%
    10:00 +2°C° 1.6 mm 10 m/s 727 mmHg 76%
    11:00 +3°C° 1.6 mm 11 m/s 727 mmHg 79%
    12:00 +3°C° 1.7 mm 11 m/s 728 mmHg 79%
    13:00 +4°C° 1.7 mm 11 m/s 728 mmHg 79%
    14:00 +4°C° 1.7 mm 12 m/s 728 mmHg 79%
    15:00 +4°C° 0.8 mm 11 m/s 730 mmHg 79%
    16:00 +5°C° 0.8 mm 10 m/s 731 mmHg 80%
    17:00 +5°C° 0.8 mm 9 m/s 732 mmHg 80%
    18:00 +3°C° 0.2 mm 9 m/s 733 mmHg 78%
    19:00 +3°C° 0.2 mm 9 m/s 734 mmHg 77%
    20:00 +4°C° 0.2 mm 8 m/s 735 mmHg 76%
    21:00 +2°C° 0 mm 8 m/s 736 mmHg 76%
    22:00 +2°C° 0 mm 8 m/s 736 mmHg 76%
    23:00 +3°C° 0 mm 7 m/s 737 mmHg 76%

    25 Outubro, Quinta-feira

    Tempo Temperatura Precipitação Vento Pressão Humidade
    00:00 +2°C° 0 mm 7 m/s 737 mmHg 77%
    01:00 +2°C° 0 mm 7 m/s 737 mmHg 79%
    02:00 +2°C° 0 mm 7 m/s 737 mmHg 80%
    03:00 +2°C° 0 mm 6 m/s 737 mmHg 81%
    04:00 +2°C° 0 mm 6 m/s 737 mmHg 81%
    05:00 +2°C° 0 mm 5 m/s 738 mmHg 82%
    06:00 +1°C° 0 mm 5 m/s 737 mmHg 82%
    07:00 +1°C° 0 mm 4 m/s 737 mmHg 83%
    08:00 +1°C° 0 mm 4 m/s 737 mmHg 84%
    09:00 +3°C° 0 mm 4 m/s 736 mmHg 80%
    10:00 +4°C° 0 mm 4 m/s 736 mmHg 77%
    11:00 +5°C° 0 mm 4 m/s 735 mmHg 73%
    12:00 +5°C° 0.1 mm 4 m/s 735 mmHg 76%
    13:00 +5°C° 0.1 mm 3 m/s 735 mmHg 78%
    14:00 +5°C° 0.1 mm 3 m/s 734 mmHg 80%
    15:00 +5°C° 0.1 mm 3 m/s 734 mmHg 82%
    16:00 +5°C° 0.1 mm 3 m/s 734 mmHg 85%
    17:00 +5°C° 0.1 mm 3 m/s 734 mmHg 87%
    18:00 +5°C° 0 mm 3 m/s 735 mmHg 88%
    19:00 +4°C° 0 mm 4 m/s 735 mmHg 89%
    20:00 +4°C° 0 mm 4 m/s 735 mmHg 89%
    21:00 +4°C° 0 mm 4 m/s 735 mmHg 88%
    22:00 +4°C° 0 mm 4 m/s 735 mmHg 87%
    23:00 +4°C° 0 mm 4 m/s 736 mmHg 87%

    26 Outubro, Sexta-feira

    Tempo Temperatura Precipitação Vento Pressão Humidade
    00:00 +4°C° 0 mm 4 m/s 736 mmHg 86%
    01:00 +4°C° 0 mm 4 m/s 736 mmHg 86%
    02:00 +4°C° 0 mm 4 m/s 736 mmHg 85%
    03:00 +3°C° 0 mm 4 m/s 737 mmHg 86%
    04:00 +3°C° 0 mm 4 m/s 737 mmHg 87%
    05:00 +3°C° 0 mm 3 m/s 737 mmHg 89%
    06:00 +2°C° 0 mm 3 m/s 738 mmHg 89%
    07:00 +2°C° 0 mm 3 m/s 738 mmHg 90%
    08:00 +2°C° 0 mm 3 m/s 738 mmHg 91%
    09:00 +4°C° 0 mm 3 m/s 739 mmHg 85%
    10:00 +5°C° 0 mm 3 m/s 739 mmHg 79%
    11:00 +7°C° 0 mm 4 m/s 739 mmHg 74%
    12:00 +8°C° 0 mm 4 m/s 739 mmHg 71%
    13:00 +8°C° 0 mm 4 m/s 739 mmHg 68%
    14:00 +10°C° 0 mm 4 m/s 739 mmHg 65%
    15:00 +8°C° 0 mm 4 m/s 739 mmHg 69%
    16:00 +8°C° 0 mm 3 m/s 738 mmHg 74%
    17:00 +8°C° 0 mm 3 m/s 738 mmHg 78%
    18:00 +7°C° 0 mm 4 m/s 738 mmHg 81%
    19:00 +7°C° 0 mm 4 m/s 738 mmHg 84%
    20:00 +7°C° 0 mm 5 m/s 737 mmHg 86%
    21:00 +7°C° 0 mm 5 m/s 737 mmHg 86%
    22:00 +7°C° 0 mm 5 m/s 737 mmHg 86%
    23:00 +7°C° 0 mm 5 m/s 736 mmHg 86%
    Mostrar mais